World > North America > United States > New York > Acra  

Acra, NY Hourly Weather Updates

Feedback E-mail the Weather

Quick Clicks

Acra, NY Weather Maps

°F °C°F °C
Acra Weather Map
UTC Time: 6/15/2024, 06:50
Your Time:

Acra, NY Regional Weather

Expires:202406150700;;041609
ASUS41 KALY 150610
RWRALY

NEW YORK STATE HOURLY WEATHER ROUNDUP
NATIONAL WEATHER SERVICE ALBANY NY
200 AM EDT SAT JUN 15 2024

NOTE: "FAIR" INDICATES FEW OR NO CLOUDS BELOW 12,000 FEET WITH NO
SIGNIFICANT WEATHER AND/OR NO OBSTRUCTIONS TO VISIBILITY.


NYZ032-033-038>043-046>054-057>066-NYZ062>081-082-084-150700-
EAST

  
CITY           SKY/WX    TMP DP  RH WIND       PRES   REMARKS
ALBANY         MOCLDY    67  55  65 N6        29.92R                  
GLENS FALLS    CLOUDY    64  55  72 N6        29.92S                  
POUGHKEEPSIE   PTCLDY    62  61  96 CALM      29.88F FOG              
MONTGOMERY     FOG       59  59 100 CALM      29.89F VSB 1/4          
WHITE PLAINS   CLOUDY    65  63  93 NW7       29.88S                  
ISLIP          MOCLDY    65  64  97 W6        29.87S                  
NEW YORK CITY  CLOUDY    68  60  75 N3        29.87S                  
CENTRAL PARK   CLOUDY    67  66  97 CALM      29.91S                  
$$


SKY/WX - Weather  TMP - Temperature  DP - Dew Point  RH - Humidity
WIND - Wind Direction/Speed PRES - Barometric Pressure VSB - Visibility
WCI - Wind Chill Index E13G22 Wind - East Wind 13 mph/Gusts of 22 mph

Trending Headlines

Trending Entertainment Headlines

Acra Radar Loop

Use the map search tool if you want to place a location marker on the radar map...

Acra Quick Facts

National Two Day Weather Forecast


E-mail the Acra Weather Forecast

Voice your opinion or tell us about page issues...